Cosmos 1484 Rocket - Orbit

View from above orbital plane
View from above orbital plane
View from above satellite
View from above satellite

Ground track
Ground track

The orbit data is extracted from the following two-line orbital elements,

1 14208U 83075B   13140.33428458  .00002439  00000-0  17238-3 0  7466
2 14208 097.4766 185.3219 0044040 203.0555 156.8696 15.05051072623083
Epoch (UTC): 20 May 2013 08:01:22
Eccentricity: 0.0044040
inclination: 97.4766°
perigee height: 521 km
apogee height: 582 km
right ascension of ascending node: 185.3219°
argument of perigee: 203.0555°
revolutions per day: 15.05051072
mean anomaly at epoch: 156.8696°
orbit number at epoch: 62308

The dashed part of the orbit path shows where the satellite is in the earth's shadow,  

Developed and maintained by Chris Peat, Heavens-Above GmbH. Please read the updated FAQ before sending e-mail. Imprint. DLR